FW0135 Weather Reports


Display with metric or nautical units.
time (UTC)temp
F
wind
direction
speed
MPH
gust
MPH
rain 1hr
in
rain 24hr
in
rain mn
in
humidity
%
barometer
mb
20260503224939 49 84 1.0 2.0 0.00 0.09 0.02 54 993.2
20260503224434 49 84 1.0 3.0 0.00 0.10 0.02 58 993.2
20260503223421 50 132 1.0 4.0 0.00 0.10 0.02 52 993.1
20260503222915 50 346 1.0 4.0 0.00 0.10 0.02 53 993.2
20260503222408 50 327 1.0 4.0 0.00 0.10 0.02 52 993.0
20260503221902 50 314 2.0 4.0 0.00 0.10 0.02 53 992.9
20260503221357 50 267 1.0 4.0 0.00 0.10 0.02 51 993.0
20260503220851 49 28 1.0 4.0 0.00 0.10 0.02 53 992.9
20260503220345 49 336 2.0 4.0 0.00 0.10 0.02 56 992.9
20260503214827 49 344 2.0 5.0 0.00 0.12 0.02 52 992.7
20260503214320 50 309 2.0 5.0 0.00 0.13 0.02 50 992.8
20260503213814 50 320 2.0 4.0 0.00 0.13 0.02 50 992.7
20260503212802 50 102 2.0 5.0 0.00 0.14 0.02 49 992.7
20260503212256 50 335 2.0 6.0 0.00 0.14 0.02 50 992.6
20260503211751 50 330 3.0 6.0 0.00 0.15 0.02 48 992.5
20260503211244 50 204 2.0 6.0 0.00 0.15 0.02 48 992.4
20260503210738 50 284 2.0 6.0 0.00 0.17 0.02 51 992.4
20260503210233 50 5 2.0 6.0 0.00 0.18 0.02 48 992.3
20260503205220 50 13 2.0 6.0 0.00 0.20 0.02 48 992.3
20260503204714 50 38 2.0 6.0 0.00 0.21 0.02 51 992.2
20260503204209 50 338 2.0 4.0 0.00 0.21 0.02 53 992.2
20260503203703 50 332 2.0 5.0 0.00 0.21 0.02 52 992.3
20260503203156 50 298 2.0 5.0 0.00 0.21 0.02 49 992.0
20260503202651 51 307 2.0 4.0 0.00 0.21 0.02 50 992.0
20260503201639 51 297 2.0 5.0 0.00 0.21 0.02 49 991.9
20260503201133 51 342 2.0 7.0 0.00 0.21 0.02 52 991.9
20260503200120 51 302 3.0 7.0 0.00 0.22 0.02 49 992.0
20260503195614 51 318 3.0 7.0 0.00 0.23 0.02 46 991.9
20260503195108 51 306 2.0 8.0 0.01 0.23 0.02 50 992.0
20260503194603 51 340 3.0 8.0 0.01 0.24 0.02 49 991.9
20260503194056 51 215 2.0 6.0 0.01 0.25 0.02 49 992.0
20260503193550 51 312 1.0 6.0 0.01 0.26 0.02 51 991.9
20260503193045 51 240 2.0 6.0 0.01 0.26 0.02 54 991.9
20260503192539 51 332 2.0 6.0 0.01 0.27 0.02 53 991.9
20260503192033 51 331 2.0 8.0 0.01 0.27 0.02 51 992.0
20260503191527 51 330 2.0 8.0 0.01 0.27 0.02 50 991.9
20260503191021 51 155 1.0 4.0 0.01 0.27 0.02 53 991.9
20260503190515 50 126 2.0 6.0 0.01 0.27 0.02 51 991.9
20260503190008 50 56 2.0 8.0 0.01 0.27 0.02 52 991.9
20260503185502 51 343 2.0 8.0 0.01 0.27 0.02 52 991.9
20260503184450 51 108 2.0 5.0 0.00 0.26 0.01 52 991.8
20260503183944 51 342 1.0 4.0 0.00 0.26 0.01 51 991.8
20260503183439 51 347 1.0 4.0 0.00 0.26 0.01 54 991.9
20260503182932 51 350 1.0 4.0 0.00 0.26 0.01 56 991.9
20260503182426 51 75 2.0 4.0 0.00 0.26 0.01 55 991.9
20260503181921 50 312 1.0 4.0 0.00 0.26 0.01 55 991.8
20260503181418 50 313 1.0 4.0 0.00 0.26 0.01 60 992.0
20260503180908 50 5 2.0 4.0 0.00 0.26 0.01 56 992.0
20260503180403 50 73 2.0 6.0 0.00 0.26 0.01 56 991.9
20260503175857 50 38 2.0 7.0 0.00 0.26 0.01 60 992.0
20260503175350 50 347 2.0 7.0 0.00 0.26 0.01 59 992.0
20260503174347 50 329 2.0 6.0 0.00 0.27 0.01 58 991.9
20260503172347 50 347 2.0 5.0 0.00 0.28 0.01 58 992.0
20260503171847 50 108 2.0 7.0 0.00 0.30 0.01 60 992.2
20260503171346 49 254 2.0 7.0 0.00 0.31 0.01 61 992.2
20260503170845 49 0 3.0 6.0 0.00 0.32 0.01 59 992.1
20260503170346 49 284 3.0 6.0 0.00 0.32 0.01 61 992.2
20260503150833 44 355 0.0 4.0 0.00 0.33 0.01 83 992.8
20260503150332 44 303 0.0 4.0 0.00 0.33 0.01 83 992.8
20260503140227 41 340 0.0 2.0 0.00 0.33 0.01 91 992.9
20260503131127 40 40 0.0 7.0 0.00 0.33 0.01 92 993.2
20260503110426 39 60 0.0 0.0 0.00 0.38 0.01 93 993.3
20260503090408 38 60 0.0 0.0 0.01 0.50 0.01 93 993.5
20260503081344 38 60 0.0 0.0 0.01 0.55 0.01 93 994.0
20260503080837 38 60 0.0 0.0 0.00 0.54 0.00 93 994.1
20260503080331 38 60 0.0 0.0 0.00 0.54 0.00 93 994.1
20260503072748 39 60 0.0 0.0 0.00 0.55 0.00 93 994.2
20260503071230 39 60 0.0 0.0 0.00 0.55 0.00 92 994.5
20260503070724 39 60 0.0 0.0 0.00 0.55 0.00 92 994.6
20260503070219 39 60 0.0 0.0 0.00 0.55 0.00 92 994.6
20260503060106 39 60 0.0 0.0 0.00 0.55 0.00 92 995.2
20260503055054 39 60 0.0 0.0 0.00 0.55 0.00 92 995.2
20260503054549 39 60 0.0 0.0 0.00 0.55 0.00 92 995.3
20260503053536 40 60 0.0 0.0 0.00 0.55 0.00 92 995.3
20260503052525 40 60 0.0 0.0 0.00 0.55 0.00 92 995.5
20260503051513 40 60 0.0 0.0 0.00 0.55 0.00 92 995.6
20260503051006 40 60 0.0 1.0 0.00 0.55 0.00 92 995.6
20260503050500 40 60 0.0 1.0 0.00 0.55 0.00 92 995.7
20260503045954 40 60 0.0 0.0 0.00 0.55 0.00 92 995.8
20260503045448 40 60 0.0 0.0 0.00 0.55 0.00 92 995.8
20260503044942 40 60 0.0 0.0 0.00 0.55 0.00 92 995.8
20260503044436 40 60 0.0 0.0 0.00 0.55 0.00 92 996.0
20260503043931 41 60 0.0 0.0 0.00 0.55 0.00 92 995.9
20260503043425 41 60 0.0 0.0 0.00 0.55 0.00 92 996.0
20260503042919 41 60 0.0 0.0 0.00 0.55 0.00 92 996.0
20260503042413 41 60 0.0 0.0 0.00 0.55 0.00 92 996.1
20260503041401 41 60 0.0 0.0 0.00 0.55 0.00 92 996.3
20260503040349 41 60 0.0 0.0 0.00 0.55 0.00 92 996.2
20260503035843 42 60 0.0 0.0 0.00 0.55 0.55 92 996.2
20260503035337 42 60 0.0 0.0 0.00 0.55 0.55 92 996.1
20260503034831 42 60 0.0 0.0 0.00 0.55 0.55 92 996.2
20260503032807 42 60 0.0 0.0 0.00 0.55 0.55 91 996.5
20260503032304 42 60 0.0 0.0 0.00 0.55 0.55 91 996.5
20260503031755 42 60 0.0 1.0 0.01 0.55 0.55 91 996.5
20260503031249 42 60 0.0 1.0 0.02 0.55 0.55 91 996.5
20260503030743 43 60 0.0 1.0 0.03 0.55 0.55 91 996.5
20260503030238 43 60 0.0 1.0 0.03 0.55 0.55 91 996.6
20260503025732 43 60 0.0 0.0 0.03 0.55 0.55 91 996.6
20260503025225 44 60 0.0 1.0 0.03 0.55 0.55 91 996.6
20260503024719 44 60 0.0 1.0 0.03 0.55 0.55 91 996.7
20260503024214 44 60 0.0 2.0 0.03 0.55 0.55 91 996.7
20260503023708 45 60 1.0 2.0 0.03 0.55 0.55 91 996.7
20260503023202 45 72 1.0 3.0 0.03 0.55 0.55 92 996.5
20260503022156 46 0 0.0 0.0 0.03 0.55 0.55 93 996.7
20260503021653 46 0 0.0 0.0 0.02 0.54 0.54 93 996.6
20260503020652 46 0 0.0 0.0 0.00 0.52 0.52 93 996.6
20260503020152 46 0 0.0 0.0 0.00 0.52 0.52 92 996.7
20260503015650 46 0 0.0 0.0 0.00 0.52 0.52 92 996.6
20260503015146 46 0 0.0 0.0 0.00 0.52 0.52 92 996.5
20260503014143 46 0 0.0 0.0 0.00 0.52 0.52 92 996.6
20260503013642 46 0 0.0 0.0 0.00 0.52 0.52 92 996.5
20260503013141 46 0 0.0 0.0 0.00 0.52 0.52 92 996.5
20260503012136 46 0 0.0 0.0 0.00 0.52 0.52 92 996.5
20260503011634 46 0 0.0 0.0 0.00 0.52 0.52 92 996.5
20260503011131 46 0 0.0 0.0 0.00 0.52 0.52 92 996.4
20260503010630 46 0 0.0 0.0 0.00 0.52 0.52 92 996.4
20260503010130 46 0 0.0 0.0 0.00 0.52 0.52 92 996.3
20260503005630 46 0 0.0 0.0 0.00 0.52 0.52 92 996.4
20260503004626 46 0 0.0 0.0 0.00 0.52 0.52 92 996.3
20260503004125 47 0 0.0 0.0 0.00 0.52 0.52 92 996.3
20260503003626 47 0 0.0 0.0 0.00 0.52 0.52 92 996.2
20260503003126 47 0 0.0 0.0 0.00 0.52 0.52 92 996.2
20260503002624 47 0 0.0 0.0 0.01 0.52 0.52 92 996.1
20260503002124 47 0 0.0 0.0 0.01 0.52 0.52 92 996.2
20260503001626 47 0 0.0 0.0 0.01 0.52 0.52 92 996.1
20260503001125 47 0 0.0 0.0 0.02 0.52 0.52 92 996.1
20260503000625 47 0 0.0 0.0 0.04 0.52 0.52 92 996.1
20260503000124 47 0 0.0 0.0 0.04 0.52 0.52 92 996.0
20260502235625 47 0 0.0 0.0 0.04 0.52 0.52 92 996.0
20260502235126 47 0 0.0 0.0 0.04 0.52 0.52 92 995.8
20260502234625 47 0 0.0 0.0 0.05 0.52 0.52 92 995.8
20260502234125 47 0 0.0 0.0 0.05 0.52 0.52 92 995.8
20260502233625 47 0 0.0 0.0 0.05 0.52 0.52 92 995.8
20260502233124 47 0 0.0 0.0 0.05 0.52 0.52 92 996.0
20260502232624 47 0 0.0 0.0 0.04 0.51 0.51 92 996.0
20260502231112 48 0 0.0 0.0 0.03 0.50 0.50 92 996.0
20260502230607 48 0 0.0 0.0 0.01 0.48 0.48 92 996.0
20260502230101 48 0 0.0 0.0 0.01 0.48 0.48 92 996.0
20260502225555 48 0 0.0 0.0 0.02 0.48 0.48 92 995.8